McCutcheon Field, NC

11:34 PM EST on February 26, 2017 (GMT -0500)
New River Marine Corps Air Station

Weather History for KNCA - October, 2010

Change the Weather History Date:

Monday, October 11, 2010

  Actual Average Record
Temperature  
Mean Temperature 72 °F -  
Max Temperature 84 °F 73 °F 87 °F (2014)
Min Temperature 61 °F 53 °F 37 °F (2000)
Cooling Degree Days 8    
Growing Degree Days 22 (Base 50)    
Moisture  
Dew Point 62 °F    
Average Humidity 75    
Maximum Humidity 93    
Minimum Humidity 41    
Precipitation  
Precipitation 0.00 in - - ()
Sea Level Pressure  
Sea Level Pressure 29.95 in    
Wind  
Wind Speed 7 mph (SW)    
Max Wind Speed 10 mph    
Max Gust Speed -    
Visibility 10 miles    
Events      
Averages and records for this station are not official NWS values.
T = Trace of Precipitation, MM = Missing Value Source: NWS Daily Summary

Daily Weather History Graph

Daily Weather History Graph

Search for Another Location

Airport or City:

Trip Planner

Search our weather history database for the weather conditions in past years. The results will help you decide how hot, cold, wet, or windy it might be!

Date:

Astronomy

Oct. 11, 2010 Rise Set
Actual Time 7:12 AM EDT 6:40 PM EDT
Civil Twilight 6:46 AM EDT 7:05 PM EDT
Nautical Twilight 6:17 AM EDT 7:34 PM EDT
Astronomical Twilight 5:48 AM EDT 8:03 PM EDT
Moon 11:33 AM EDT (10/11) 9:29 PM EDT (10/11)
Length of Visible Light 12h 18m
Length of Day
11h 28m
Waxing Crescent, 19% of the Moon is Illuminated
Oct 11
Waxing Crescent
Oct 14
First Quarter
Oct 22
Full
Oct 30
Last Quarter
Nov 6
New

Hourly Weather History & Observations

Time (EDT) Temp. Heat Index Dew Point Humidity Pressure Visibility Wind Dir Wind Speed Gust Speed Precip Events Conditions
12:56 AM 64.9 °F - 62.1 °F 90% 29.96 in 10.0 mi SW 5.8 mph - N/A   Clear
1:56 AM 64.9 °F - 62.1 °F 90% 29.96 in 10.0 mi WSW 5.8 mph - N/A   Clear
2:56 AM 64.0 °F - 62.1 °F 93% 29.96 in 10.0 mi WSW 6.9 mph - N/A   Clear
3:56 AM 63.0 °F - 61.0 °F 93% 29.96 in 9.0 mi WSW 6.9 mph - N/A   Clear
4:56 AM 62.1 °F - 60.1 °F 93% 29.96 in 8.0 mi WSW 5.8 mph - N/A   Clear
5:56 AM 62.1 °F - 60.1 °F 93% 29.96 in 9.0 mi WSW 8.1 mph - N/A   Clear
6:56 AM 61.0 °F - 59.0 °F 93% 29.97 in 10.0 mi WSW 8.1 mph - N/A   Clear
7:56 AM 61.0 °F - 59.0 °F 93% 29.97 in 10.0 mi WSW 6.9 mph - N/A   Clear
8:56 AM 64.9 °F - 60.1 °F 84% 29.98 in 10.0 mi WSW 8.1 mph - N/A   Clear
9:56 AM 70.0 °F - 60.1 °F 71% 29.99 in 10.0 mi West 9.2 mph - N/A   Clear
10:56 AM 75.0 °F - 61.0 °F 62% 29.99 in - West 6.9 mph - N/A   Clear
11:56 AM 79.0 °F - 60.1 °F 52% 29.98 in - SW 8.1 mph - N/A   Clear
12:56 PM 82.0 °F 82.7 °F 61.0 °F 49% 29.97 in - WSW 9.2 mph - N/A   Clear
1:56 PM 82.9 °F 82.6 °F 57.9 °F 42% 29.94 in - WSW 8.1 mph - N/A   Clear
2:56 PM 82.9 °F 82.4 °F 57.0 °F 41% 29.91 in - WSW 10.4 mph - N/A   Clear
3:56 PM 84.0 °F 83.5 °F 57.9 °F 41% 29.90 in - WSW 9.2 mph - N/A   Clear
4:56 PM 81.0 °F 82.5 °F 64.0 °F 56% 29.90 in - South 8.1 mph - N/A   Clear
5:56 PM 77.0 °F - 64.0 °F 64% 29.90 in - South 6.9 mph - N/A   Clear
6:56 PM 73.0 °F - 64.9 °F 76% 29.91 in - South 5.8 mph - N/A   Clear
7:56 PM 71.1 °F - 64.9 °F 81% 29.92 in - SSW 5.8 mph - N/A   Clear
8:56 PM 70.0 °F - 64.9 °F 84% 29.94 in - SSW 5.8 mph - N/A   Clear
9:56 PM 69.1 °F - 64.0 °F 84% 29.94 in - SSW 5.8 mph - N/A   Clear
10:56 PM 69.1 °F - 66.0 °F 90% 29.95 in - SSW 5.8 mph - N/A   Clear
11:56 PM 68.0 °F - 66.0 °F 93% 29.94 in - SSW 4.6 mph - N/A   Clear